User: anonymous   Login
Location: Sternwarte_Laufen
(47.9344°N, 12.9346°E)
Time: 20:37:46
(UTC+02:00)
Language:

ISS - Orbit

View from above orbital plane
View from above orbital plane
View from above satellite
View from above satellite

Ground track
Ground track

The orbit data is extracted from the following two-line orbital elements,

1 25544U 98067A   21101.58258458  .00000386  00000-0  15214-4 0  9994
2 25544  51.6436 312.1625 0002799 220.0748 219.4362 15.48880584278271
Epoch (UTC): 11 April 2021 13:58:55
Eccentricity: 0.0002799
inclination: 51.6436°
perigee height: 418 km
apogee height: 422 km
right ascension of ascending node: 312.1625°
argument of perigee: 220.0748°
revolutions per day: 15.48880584
mean anomaly at epoch: 219.4362°
orbit number at epoch: 27827

The dashed part of the orbit path shows where the satellite is in the earth's shadow,  

DLR